| time (UTC) | temp C | wind direction | speed KPH | gust KPH | rain 1hr cm | rain 24hr cm | rain mn cm | humidity % | barometer mb |
| 20260504141006 | 18 | 360 | 0.0 | 9.7 | 0.00 | 0.00 | 0.00 | 56 | 1014.9 |
| 20260504140504 | 18 | 360 | 1.6 | 6.4 | 0.00 | 0.00 | 0.00 | 57 | 1014.9 |
| 20260504130507 | 14 | 360 | 1.6 | 4.8 | 0.00 | 0.00 | 0.00 | 73 | 1015.7 |
| 20260504110507 | 10 | 58 | 0.0 | 0.0 | 0.00 | 0.00 | 0.00 | 84 | 1016.4 |
| 20260504100506 | 10 | 103 | 0.0 | 1.6 | 0.00 | 0.00 | 0.00 | 84 | 1016.1 |
| 20260504082006 | 9 | 172 | 0.0 | 3.2 | 0.00 | 0.00 | 0.00 | 83 | 1016.4 |
| 20260504081509 | 8 | 172 | 0.0 | 3.2 | 0.00 | 0.00 | 0.00 | 82 | 1016.4 |
| 20260504081005 | 8 | 172 | 0.0 | 3.2 | 0.00 | 0.00 | 0.00 | 82 | 1016.4 |
| 20260504080503 | 8 | 172 | 0.0 | 3.2 | 0.00 | 0.00 | 0.00 | 82 | 1016.4 |
| 20260504050508 | 7 | 5 | 0.0 | 3.2 | 0.00 | 0.00 | 0.00 | 72 | 1016.5 |
| 20260504050024 | 7 | 5 | 0.0 | 3.2 | 0.00 | 0.00 | 0.00 | 72 | 1016.5 |
| 20260504045507 | 7 | 5 | 0.0 | 1.6 | 0.00 | 0.00 | 0.00 | 72 | 1016.5 |
| 20260504045007 | 7 | 5 | 0.0 | 0.0 | 0.00 | 0.00 | 0.00 | 72 | 1016.5 |
| 20260504044507 | 7 | 5 | 0.0 | 0.0 | 0.00 | 0.00 | 0.00 | 71 | 1016.4 |
| 20260504044006 | 7 | 5 | 0.0 | 0.0 | 0.00 | 0.00 | 0.00 | 71 | 1016.5 |
| 20260504043504 | 7 | 5 | 0.0 | 1.6 | 0.00 | 0.00 | 0.00 | 71 | 1016.4 |
| 20260504043015 | 7 | 5 | 0.0 | 1.6 | 0.00 | 0.00 | 0.00 | 70 | 1016.4 |
| 20260504042506 | 7 | 5 | 0.0 | 1.6 | 0.00 | 0.00 | 0.00 | 69 | 1016.4 |
| 20260504042008 | 7 | 5 | 0.0 | 1.6 | 0.00 | 0.00 | 0.00 | 69 | 1016.4 |
| 20260504041518 | 7 | 5 | 0.0 | 1.6 | 0.00 | 0.00 | 0.00 | 69 | 1016.3 |
| 20260504041008 | 7 | 5 | 0.0 | 1.6 | 0.00 | 0.00 | 0.00 | 69 | 1016.2 |
| 20260504040508 | 7 | 5 | 0.0 | 1.6 | 0.00 | 0.00 | 0.00 | 69 | 1016.1 |
| 20260504040022 | 7 | 5 | 0.0 | 1.6 | 0.00 | 0.00 | 0.00 | 69 | 1016.1 |
| 20260504035509 | 7 | 5 | 0.0 | 1.6 | 0.00 | 0.00 | 0.00 | 69 | 1016.1 |
| 20260504035007 | 7 | 5 | 0.0 | 0.0 | 0.00 | 0.00 | 0.00 | 68 | 1016.1 |
| 20260504034529 | 7 | 5 | 0.0 | 0.0 | 0.00 | 0.00 | 0.00 | 68 | 1016.1 |
| 20260504034010 | 7 | 5 | 0.0 | 0.0 | 0.00 | 0.00 | 0.00 | 67 | 1016.0 |
| 20260504033511 | 7 | 5 | 0.0 | 0.0 | 0.00 | 0.00 | 0.00 | 67 | 1016.0 |
| 20260504033009 | 7 | 5 | 0.0 | 0.0 | 0.00 | 0.00 | 0.00 | 67 | 1016.0 |
| 20260504032504 | 7 | 5 | 0.0 | 0.0 | 0.00 | 0.00 | 0.00 | 67 | 1016.0 |
| 20260504032007 | 7 | 5 | 0.0 | 0.0 | 0.00 | 0.00 | 0.00 | 66 | 1016.0 |
| 20260504031516 | 7 | 5 | 0.0 | 0.0 | 0.00 | 0.00 | 0.00 | 66 | 1015.9 |
| 20260504031007 | 8 | 5 | 0.0 | 0.0 | 0.00 | 0.00 | 0.00 | 66 | 1015.9 |
| 20260504030504 | 8 | 5 | 0.0 | 0.0 | 0.00 | 0.00 | 0.00 | 66 | 1016.0 |
| 20260504030003 | 8 | 5 | 0.0 | 0.0 | 0.00 | 0.00 | 0.00 | 65 | 1016.0 |
| 20260504025504 | 8 | 5 | 0.0 | 0.0 | 0.00 | 0.00 | 0.00 | 65 | 1016.0 |
| 20260504025004 | 8 | 5 | 0.0 | 1.6 | 0.00 | 0.00 | 0.00 | 65 | 1016.0 |
| 20260504024509 | 8 | 5 | 0.0 | 1.6 | 0.00 | 0.00 | 0.00 | 65 | 1016.0 |
| 20260504024005 | 8 | 5 | 0.0 | 0.0 | 0.00 | 0.00 | 0.00 | 65 | 1015.9 |
| 20260504023503 | 8 | 5 | 0.0 | 0.0 | 0.00 | 0.00 | 0.00 | 64 | 1016.0 |
| 20260504023006 | 8 | 5 | 0.0 | 1.6 | 0.00 | 0.00 | 0.00 | 63 | 1016.0 |
| 20260504022503 | 8 | 5 | 0.0 | 1.6 | 0.00 | 0.00 | 0.00 | 63 | 1016.0 |
| 20260504022004 | 8 | 5 | 0.0 | 0.0 | 0.00 | 0.00 | 0.00 | 63 | 1016.0 |
| 20260504021512 | 8 | 5 | 0.0 | 1.6 | 0.00 | 0.00 | 0.00 | 63 | 1016.0 |
| 20260504021004 | 8 | 5 | 0.0 | 1.6 | 0.00 | 0.00 | 0.00 | 62 | 1015.9 |
| 20260504020503 | 9 | 5 | 0.0 | 0.0 | 0.00 | 0.00 | 0.00 | 62 | 1015.9 |
| 20260504020020 | 9 | 5 | 0.0 | 0.0 | 0.00 | 0.00 | 0.00 | 61 | 1015.9 |
| 20260504015502 | 9 | 5 | 0.0 | 1.6 | 0.00 | 0.00 | 0.00 | 60 | 1015.8 |
| 20260504015002 | 9 | 5 | 0.0 | 1.6 | 0.00 | 0.00 | 0.00 | 61 | 1015.8 |
| 20260504014504 | 10 | 5 | 0.0 | 0.0 | 0.00 | 0.00 | 0.00 | 60 | 1015.7 |
| 20260504014005 | 10 | 5 | 0.0 | 0.0 | 0.00 | 0.00 | 0.00 | 59 | 1015.7 |
| 20260504013505 | 10 | 5 | 0.0 | 0.0 | 0.00 | 0.00 | 0.00 | 58 | 1015.6 |
| 20260504013009 | 10 | 5 | 0.0 | 0.0 | 0.00 | 0.00 | 0.00 | 58 | 1015.6 |
| 20260504012504 | 10 | 5 | 0.0 | 0.0 | 0.00 | 0.00 | 0.00 | 58 | 1015.6 |
| 20260504012003 | 10 | 5 | 0.0 | 1.6 | 0.00 | 0.00 | 0.00 | 58 | 1015.6 |
| 20260504011508 | 10 | 5 | 0.0 | 1.6 | 0.00 | 0.00 | 0.00 | 58 | 1015.5 |
| 20260504011007 | 10 | 5 | 0.0 | 0.0 | 0.00 | 0.00 | 0.00 | 58 | 1015.5 |
| 20260504010506 | 11 | 9 | 0.0 | 0.0 | 0.00 | 0.00 | 0.00 | 56 | 1015.5 |
| 20260504010015 | 11 | 5 | 0.0 | 0.0 | 0.00 | 0.00 | 0.00 | 55 | 1015.4 |
| 20260504005504 | 11 | 5 | 0.0 | 0.0 | 0.00 | 0.00 | 0.00 | 54 | 1015.4 |
| 20260504005007 | 11 | 5 | 0.0 | 0.0 | 0.00 | 0.00 | 0.00 | 53 | 1015.3 |
| 20260504004524 | 11 | 5 | 0.0 | 0.0 | 0.00 | 0.00 | 0.00 | 53 | 1015.2 |
| 20260504004009 | 11 | 5 | 0.0 | 0.0 | 0.00 | 0.00 | 0.00 | 53 | 1015.2 |
| 20260504003503 | 11 | 5 | 0.0 | 0.0 | 0.00 | 0.00 | 0.00 | 51 | 1015.1 |
| 20260504003004 | 12 | 5 | 0.0 | 0.0 | 0.00 | 0.00 | 0.00 | 51 | 1015.0 |
| 20260504002503 | 12 | 5 | 0.0 | 0.0 | 0.00 | 0.00 | 0.00 | 50 | 1014.8 |
| 20260504002003 | 12 | 5 | 0.0 | 0.0 | 0.00 | 0.00 | 0.00 | 50 | 1014.7 |
| 20260504001507 | 12 | 5 | 0.0 | 0.0 | 0.00 | 0.00 | 0.00 | 49 | 1014.7 |
| 20260504001005 | 12 | 5 | 0.0 | 0.0 | 0.00 | 0.00 | 0.00 | 48 | 1014.7 |
| 20260504000503 | 13 | 13 | 0.0 | 0.0 | 0.00 | 0.00 | 0.00 | 48 | 1014.6 |
| 20260504000012 | 13 | 360 | 0.0 | 0.0 | 0.00 | 0.00 | 0.00 | 46 | 1014.6 |
| 20260503235504 | 13 | 5 | 0.0 | 0.0 | 0.00 | 0.00 | 0.00 | 46 | 1014.7 |
| 20260503235004 | 13 | 5 | 0.0 | 0.0 | 0.00 | 0.00 | 0.00 | 44 | 1014.7 |
| 20260503234516 | 13 | 5 | 0.0 | 0.0 | 0.00 | 0.00 | 0.00 | 44 | 1014.6 |
| 20260503234007 | 13 | 9 | 0.0 | 1.6 | 0.00 | 0.00 | 0.00 | 43 | 1014.6 |
| 20260503233505 | 13 | 5 | 0.0 | 1.6 | 0.00 | 0.00 | 0.00 | 43 | 1014.6 |
| 20260503233021 | 13 | 355 | 0.0 | 3.2 | 0.00 | 0.00 | 0.00 | 43 | 1014.5 |
| 20260503232506 | 13 | 352 | 0.0 | 8.0 | 0.00 | 0.00 | 0.00 | 43 | 1014.5 |
| 20260503232008 | 14 | 360 | 1.6 | 8.0 | 0.00 | 0.00 | 0.00 | 42 | 1014.5 |
| 20260503231504 | 14 | 121 | 0.0 | 4.8 | 0.00 | 0.00 | 0.00 | 42 | 1014.4 |
| 20260503231004 | 14 | 65 | 0.0 | 4.8 | 0.00 | 0.00 | 0.00 | 42 | 1014.4 |
| 20260503230509 | 14 | 360 | 0.0 | 6.4 | 0.00 | 0.00 | 0.00 | 42 | 1014.4 |
| 20260503230010 | 14 | 25 | 0.0 | 6.4 | 0.00 | 0.00 | 0.00 | 41 | 1014.3 |
| 20260503225503 | 14 | 24 | 0.0 | 6.4 | 0.00 | 0.00 | 0.00 | 41 | 1014.3 |
| 20260503225005 | 14 | 244 | 0.0 | 6.4 | 0.00 | 0.00 | 0.00 | 40 | 1014.3 |
| 20260503224524 | 14 | 254 | 1.6 | 11.3 | 0.00 | 0.00 | 0.00 | 40 | 1014.3 |
| 20260503224005 | 14 | 175 | 1.6 | 11.3 | 0.00 | 0.00 | 0.00 | 39 | 1014.3 |
| 20260503223507 | 14 | 79 | 3.2 | 11.3 | 0.00 | 0.00 | 0.00 | 39 | 1014.3 |
| 20260503223016 | 14 | 360 | 1.6 | 11.3 | 0.00 | 0.00 | 0.00 | 39 | 1014.2 |
| 20260503222507 | 15 | 71 | 4.8 | 11.3 | 0.00 | 0.00 | 0.00 | 39 | 1014.2 |
| 20260503222008 | 15 | 360 | 1.6 | 14.5 | 0.00 | 0.00 | 0.00 | 39 | 1014.2 |
| 20260503221522 | 15 | 360 | 3.2 | 14.5 | 0.00 | 0.00 | 0.00 | 38 | 1014.2 |
| 20260503221011 | 15 | 360 | 3.2 | 9.7 | 0.00 | 0.00 | 0.00 | 38 | 1014.3 |
| 20260503220508 | 15 | 360 | 3.2 | 9.7 | 0.00 | 0.00 | 0.00 | 40 | 1014.2 |
| 20260503220016 | 15 | 360 | 4.8 | 9.7 | 0.00 | 0.00 | 0.00 | 38 | 1014.3 |
| 20260503215503 | 15 | 360 | 1.6 | 12.9 | 0.00 | 0.00 | 0.00 | 39 | 1014.3 |
| 20260503215003 | 15 | 360 | 3.2 | 12.9 | 0.00 | 0.00 | 0.00 | 39 | 1014.2 |
| 20260503214511 | 15 | 360 | 3.2 | 9.7 | 0.00 | 0.00 | 0.00 | 39 | 1014.3 |
| 20260503214003 | 15 | 360 | 3.2 | 9.7 | 0.00 | 0.00 | 0.00 | 38 | 1014.3 |
| 20260503213504 | 15 | 360 | 1.6 | 9.7 | 0.00 | 0.00 | 0.00 | 39 | 1014.2 |
| 20260503213016 | 15 | 360 | 3.2 | 9.7 | 0.00 | 0.00 | 0.00 | 37 | 1014.1 |
| 20260503212513 | 15 | 92 | 3.2 | 9.7 | 0.00 | 0.00 | 0.00 | 37 | 1014.1 |
| 20260503212005 | 15 | 334 | 1.6 | 16.1 | 0.00 | 0.00 | 0.00 | 38 | 1014.1 |
| 20260503211522 | 15 | 360 | 4.8 | 16.1 | 0.00 | 0.00 | 0.00 | 37 | 1014.0 |
| 20260503211007 | 15 | 78 | 1.6 | 12.9 | 0.00 | 0.00 | 0.00 | 38 | 1014.0 |
| 20260503210508 | 15 | 360 | 3.2 | 12.9 | 0.00 | 0.00 | 0.00 | 37 | 1014.0 |
| 20260503210025 | 15 | 360 | 4.8 | 9.7 | 0.00 | 0.00 | 0.00 | 37 | 1014.0 |
| 20260503205509 | 15 | 360 | 3.2 | 9.7 | 0.00 | 0.00 | 0.00 | 37 | 1014.0 |
| 20260503205008 | 15 | 360 | 4.8 | 14.5 | 0.00 | 0.00 | 0.00 | 37 | 1014.1 |
| 20260503204508 | 15 | 360 | 3.2 | 14.5 | 0.00 | 0.00 | 0.00 | 37 | 1014.0 |
| 20260503204005 | 15 | 360 | 6.4 | 14.5 | 0.00 | 0.00 | 0.00 | 36 | 1014.1 |
| 20260503203503 | 15 | 360 | 4.8 | 12.9 | 0.00 | 0.00 | 0.00 | 37 | 1014.1 |
| 20260503203014 | 15 | 360 | 4.8 | 14.5 | 0.00 | 0.00 | 0.00 | 36 | 1014.1 |
| 20260503202504 | 15 | 360 | 1.6 | 14.5 | 0.00 | 0.00 | 0.00 | 36 | 1014.2 |
| 20260503202007 | 15 | 201 | 3.2 | 12.9 | 0.00 | 0.00 | 0.00 | 36 | 1014.2 |
| 20260503201520 | 15 | 304 | 3.2 | 14.5 | 0.00 | 0.00 | 0.00 | 36 | 1014.2 |
| 20260503201004 | 15 | 46 | 1.6 | 14.5 | 0.00 | 0.00 | 0.00 | 36 | 1014.3 |
| 20260503200508 | 15 | 234 | 1.6 | 16.1 | 0.00 | 0.00 | 0.00 | 35 | 1014.3 |
| 20260503200025 | 15 | 253 | 4.8 | 16.1 | 0.00 | 0.00 | 0.00 | 35 | 1014.3 |
| 20260503195510 | 16 | 267 | 4.8 | 12.9 | 0.00 | 0.00 | 0.00 | 35 | 1014.4 |
| 20260503195009 | 16 | 255 | 3.2 | 9.7 | 0.00 | 0.00 | 0.00 | 35 | 1014.4 |
| 20260503194524 | 16 | 218 | 3.2 | 12.9 | 0.00 | 0.00 | 0.00 | 36 | 1014.4 |
| 20260503194008 | 15 | 267 | 1.6 | 16.1 | 0.00 | 0.00 | 0.00 | 35 | 1014.4 |
| 20260503193512 | 16 | 288 | 4.8 | 16.1 | 0.00 | 0.00 | 0.00 | 36 | 1014.4 |
| 20260503193030 | 15 | 188 | 1.6 | 14.5 | 0.00 | 0.00 | 0.00 | 37 | 1014.3 |
| 20260503192504 | 15 | 342 | 6.4 | 14.5 | 0.00 | 0.00 | 0.00 | 36 | 1014.4 |
| 20260503192007 | 15 | 296 | 6.4 | 17.7 | 0.00 | 0.00 | 0.00 | 36 | 1014.5 |
| 20260503191516 | 16 | 146 | 3.2 | 17.7 | 0.00 | 0.00 | 0.00 | 35 | 1014.5 |
| 20260503191008 | 16 | 9 | 3.2 | 12.9 | 0.00 | 0.00 | 0.00 | 37 | 1014.5 |
| 20260503190511 | 15 | 225 | 3.2 | 14.5 | 0.00 | 0.00 | 0.00 | 37 | 1014.6 |
| 20260503190019 | 15 | 173 | 4.8 | 14.5 | 0.00 | 0.00 | 0.00 | 36 | 1014.6 |
| 20260503185508 | 15 | 211 | 4.8 | 16.1 | 0.00 | 0.00 | 0.00 | 36 | 1014.6 |
| 20260503185007 | 15 | 309 | 6.4 | 16.1 | 0.00 | 0.00 | 0.00 | 37 | 1014.6 |
| 20260503184521 | 15 | 360 | 3.2 | 9.7 | 0.00 | 0.00 | 0.00 | 37 | 1014.6 |
| 20260503184010 | 15 | 360 | 3.2 | 17.7 | 0.00 | 0.00 | 0.00 | 36 | 1014.7 |
| 20260503183509 | 15 | 48 | 6.4 | 17.7 | 0.00 | 0.00 | 0.00 | 36 | 1014.8 |
| 20260503183025 | 15 | 360 | 1.6 | 14.5 | 0.00 | 0.00 | 0.00 | 37 | 1014.9 |
| 20260503182509 | 15 | 360 | 4.8 | 14.5 | 0.00 | 0.00 | 0.00 | 37 | 1015.1 |
| 20260503182008 | 15 | 360 | 3.2 | 12.9 | 0.00 | 0.00 | 0.00 | 38 | 1015.0 |
| 20260503181529 | 15 | 360 | 4.8 | 12.9 | 0.00 | 0.00 | 0.00 | 38 | 1015.0 |
| 20260503181005 | 15 | 316 | 1.6 | 20.9 | 0.00 | 0.00 | 0.00 | 38 | 1015.1 |
| 20260503180504 | 15 | 360 | 6.4 | 20.9 | 0.00 | 0.00 | 0.00 | 37 | 1015.0 |
| 20260503180017 | 15 | 360 | 3.2 | 9.7 | 0.00 | 0.00 | 0.00 | 39 | 1014.8 |
| 20260503175507 | 14 | 360 | 4.8 | 9.7 | 0.00 | 0.00 | 0.00 | 41 | 1014.9 |
| 20260503175004 | 14 | 360 | 1.6 | 12.9 | 0.00 | 0.00 | 0.00 | 40 | 1014.9 |
| 20260503174530 | 13 | 37 | 3.2 | 16.1 | 0.00 | 0.00 | 0.00 | 41 | 1015.0 |
| 20260503174008 | 13 | 360 | 3.2 | 17.7 | 0.00 | 0.00 | 0.00 | 41 | 1014.9 |
| 20260503173509 | 13 | 17 | 6.4 | 17.7 | 0.00 | 0.00 | 0.00 | 40 | 1014.9 |
| 20260503173033 | 14 | 360 | 4.8 | 12.9 | 0.00 | 0.00 | 0.00 | 40 | 1015.0 |
| 20260503172512 | 13 | 360 | 3.2 | 9.7 | 0.00 | 0.00 | 0.00 | 43 | 1015.0 |
| 20260503172010 | 13 | 270 | 3.2 | 12.9 | 0.00 | 0.00 | 0.00 | 42 | 1015.0 |
| 20260503171527 | 13 | 360 | 3.2 | 12.9 | 0.00 | 0.00 | 0.00 | 42 | 1015.1 |
| 20260503171005 | 13 | 115 | 3.2 | 12.9 | 0.00 | 0.00 | 0.00 | 42 | 1015.0 |
| 20260503170501 | 13 | 16 | 3.2 | 16.1 | 0.00 | 0.00 | 0.00 | 43 | 1015.0 |
| 20260503151003 | 12 | 360 | 3.2 | 14.5 | 0.00 | 0.00 | 0.00 | 49 | 1015.4 |
| 20260503150503 | 12 | 360 | 3.2 | 12.9 | 0.00 | 0.00 | 0.00 | 48 | 1015.4 |